Showing default

ITASAT, 43786

Orbit data source: Space-Track

ITASAT, 43786 is a payload satellite owned by ITA (BR) in SSO that was launched on Mon, 03 Dec 2018 UTC via an FALCON 9 launch vehicle from the Air Force Western Test Range (AFWTR). Payload-class satellites include a variety of spacecraft equipped with specific instruments for various scientific and technological missions. These include communications satellites like Starlink; space stations such as the ISS; scientific satellites like the Hubble; Earth observation satellites from companies like Planet Labs, Umbra, and HawkEye 360; GPS; miniature CubeSats for education and research; and military/defense satellites.

Loading next visibility...
Identifier
43786, 2018-099AE
Orbit
SSO
Country
Flag of BRBR / BRAZ
Related business
Manufacturer
ITA
Mission
Operational Civil Technology
Bus & Motor
CUBESAT 6U, Unknown motor
Mass
8 kg wet, 8 kg dry
Launch date (UTC)
2018-12-03 (7 years ago)
Launch vehicle
FALCON 9
Launch site
Air Force Western Test Range (AFWTR)
Object type
Payload
Rocket body
Debris
Shape & HBR
Box, 0.1 m
Radar Cross Section
0.080 m², Medium (>0.1 m² and < 1m²)

Expand to show TLE details & history
Last TLE update: 16 hours ago

TLE from 16 hours ago
0 ITASAT
1 43786U 18099AE  26124.66915632  .00006831  00000-0  33359-3 0  9992
2 43786  97.4059 177.0601 0013962 139.6559 220.5714 15.18497725406308
Epoch: 2026-05-04T16:03Z
TLE epoch observation values (Epoch: 2026-05-04T16:03:35.106Z)
Latitude
0.00003°
Longitude
73.60878°
Altitude
520.781 km
Speed
7.599 km/s
True Right ascension
11h 48m 14s
True Declination
0° 00' 00"
Sunlit
Object was in full shadow at epoch
Visualization orbit readout
Latitude
Unknown
Longitude
Unknown
Altitude
Unknown
Speed
Unknown
Apparent Right ascension
Unknown
Apparent Declination
Unknown
Sunlit
N/A
Visualization observer readout
Local Sidereal Time
15:47:32
Azimuth
Unknown
Elevation
Unknown
Doppler factor
Unknown
Orbital elements
Apogee altitude
516.961 km
Perigee altitude
497.734 km
Semi-major axis
6,885.485 km
Eccentricity
0.0014
Inclination
97.4059°
RAAN
177.0601°
Arg. of periapsis
139.6559°
True anomaly
220.46748°
Mean anomaly
220.5714°
Eccentric anomaly
220.51943°
Mean motion
3.79876 °/min
Orbital period
94.77 mins
BSTAR
0.00033359
Loading maneuver chart data...
Computing Atmospheric mass density...
Loading historical data...
Loading historical data...
Loading historical data...
Loading historical data...
Loading historical data...
Loading historical data...
Loading historical data...

Documentation

Showing up to 5 results
|